Location: Rumah Dana
(3.1167°N, 113.0167°E)
Time: 14:05:00
(UTC+00:00)

SL-16 R/B - Pass Details

Date: 03 August 2024
Orbit: 841 x 847 km, 71.0° (Epoch: 10 September)

Event Time Altitude Azimuth Distance (km) Brightness Sun altitude
Exits shadow 19:54:26 26° 110° (ESE) 1,594 3.9 -36.6°
Maximum altitude 19:54:43 26° 105° (ESE) 1,590 3.9 -36.5°
Drops below altitude 10° 19:59:22 10° 49° (NE) 2,461 5.3 -35.5°
Sets 20:02:10 0° 37° (NE) 3,394 6.1 -34.8°
